cover

Allen Watts - Tunnel Vision (Original Mix)

Get it on iTunes

Trackname / Key / BPM / Publish dateArtists, Remixers / Label
138 bpm, 10B / D major, 2014-11-21, Trance,  2  42

Tracks in release A State Of Trance - Future Favorite Best Of 2014 - Extended Versions

#Trackname / Key / BPM / Publish dateArtists, Remixers / Label
1 130 bpm, 9B / G major, 2014-11-21, Big Room,  2  42
2 130 bpm, 2B / F# major, 2014-11-21, Big Room,  0  42
3 138 bpm, 1A / Ab minor, 2014-11-21, Trance,  0  42
4 132 bpm, 8A / A minor, 2014-11-21, Trance,  0  42
5 133 bpm, 2A / Eb minor, 2014-11-21, Trance,  0  42
6 138 bpm, 4A / F minor, 2014-11-21, Trance,  2  42
7 138 bpm, 8A / A minor, 2014-11-21, Trance,  0  42
8 132 bpm, 6A / G minor, 2014-11-21, Trance,  2  42
9 140 bpm, 11B / A major, 2014-11-21, Trance,  0  42
10 130 bpm, 2B / F# major, 2014-11-21, Electronica,  0  42
11 138 bpm, 11B / A major, 2014-11-21, Trance,  1  42
12 140 bpm, 5B / Eb major, 2014-11-21, Trance,  0  42
13 138 bpm, 7A / D minor, 2014-11-21, Trance,  0  42
14 132 bpm, 2A / Eb minor, 2014-11-21, Trance,  0  42
15 132 bpm, 6A / G minor, 2014-11-21, Trance,  0  42
16 132 bpm, 9A / E minor, 2014-11-21, Trance,  0  42
17 132 bpm, 9B / G major, 2014-11-21, Trance,  0  42
18 136 bpm, 7A / D minor, 2014-11-21, Trance,  0  42
19 138 bpm, 7A / D minor, 2014-11-21, Trance,  0  42
20 138 bpm, 10B / D major, 2014-11-21, Trance,  2  42
21 132 bpm, 7B / F major, 2014-11-21, Trance,  0  42
22 132 bpm, 9A / E minor, 2014-11-21, Trance,  0  42
23 138 bpm, 5A / C minor, 2014-11-21, Trance,  0  42
24 132 bpm, 4A / F minor, 2014-11-21, Trance,  0  42
25 138 bpm, 5B / Eb major, 2014-11-21, Trance,  0  42
26 138 bpm, 11A / F# minor, 2014-11-21, Trance,  0  42
27 138 bpm, 7A / D minor, 2014-11-21, Trance,  0  42
28 128 bpm, 11B / A major, 2014-11-21, Trance,  0  42
29 138 bpm, 11A / F# minor, 2014-11-21, Trance,  0  42
30 138 bpm, 4B / Ab major, 2014-11-21, Trance,  0  42
31 138 bpm, 10A / B minor, 2014-11-21, Trance,  0  42
32 132 bpm, 7A / D minor, 2014-11-21, Trance,  0  42
33 136 bpm, 6A / G minor, 2014-11-21, Trance,  0  42
34 138 bpm, 6A / G minor, 2014-11-21, Trance,  0  42
35 140 bpm, 8A / A minor, 2014-11-21, Trance,  1  42
36 140 bpm, 6A / G minor, 2014-11-21, Trance,  0  42
37 138 bpm, 8A / A minor, 2014-11-21, Trance,  8  42
38 132 bpm, 12B / E major, 2014-11-21, Trance,  0  42
39 134 bpm, 7A / D minor, 2014-11-21, Trance,  0  42
40 138 bpm, 12A / Db minor, 2014-11-21, Trance,  0  42
41 140 bpm, 7A / D minor, 2014-11-21, Trance,  0  42
42 128 bpm, 6A / G minor, 2014-11-21, Trance,  1  42

Recommendations

#Trackname / Key / BPM / Publish dateArtists, Remixers / Label
1 136 bpm, 2A / Eb minor, 2014-12-08, Trance,  64  1   2
2 140 bpm, 3A / Bb minor, 2014-12-08, Trance,  27  1   1
3 140 bpm, 9A / E minor, 2014-06-23, Trance,  26  1   2
4 130 bpm, 10A / B minor, 2014-10-20, Trance,  11  1   1
5 140 bpm, 6A / G minor, 2014-02-10, Trance,  9  1   4
6 134 bpm, 8A / A minor, 2015-07-03, Trance,  8  1   1
7 132 bpm, 8A / A minor, 2015-07-10, Trance,  7  1   1
8 140 bpm, 11A / F# minor, 2014-08-04, Trance,  6  1   23
9 140 bpm, 11B / A major, 2014-10-31, Trance,  5  1   1
10 136 bpm, 7B / F major, 2014-11-10, Trance,  5  1   2
11 140 bpm, 6A / G minor, 2014-11-28, Psy-Trance,  5  1   12
12 132 bpm, 6A / G minor, 2014-09-12, Trance,  4  1   10
13 132 bpm, 2A / Eb minor, 2013-12-09, Trance,  2  1   2
14 138 bpm, 5B / Eb major, 2014-05-05, Trance,  1  1   3
15 138 bpm, 2A / Eb minor, 2014-12-08, Trance,  1  1   2
16 136 bpm, 6A / G minor, 2014-10-06, Trance,  1  1   25
17 140 bpm, 8A / A minor, 2014-10-27, Trance,  1  1   20
18 138 bpm, 7A / D minor, 2014-12-26, Trance,  1  1   3

Charts

ArtistTitleGenresPublish date
Farhad MahdaviDestination Of Trance Vol.1Trance2015-07-10
Curtis & Craig A.K.A C&C ProjectCurtis & Craig Best Of 2014Trance, Psy-Trance2014-12-14
Please wait...